Погода в Судбищах

Россия / Орловская область     52°56′57″N   37°38′17″E
темп.,
°C
ветер,
м/с
пор.,
м/с
влажн.,
%
обл.,
%
осадки,
мм/ч
давл.,
гПа
погр.,
м
13 мая, чт
чт1300:00+6в4109422 0.0 1018202
03:00+8вюв51293100 0.0 1017360
06:00+8вюв5129497 0.0 1017343
09:00+9юв4695100 0.8 1017315
12:00+12юв71184100 4.0 1016719
15:00+15ююв797698 4.3 10151165
18:00+15ююв478288 0.4 1014626
21:00+11ююв22914 0.4 101522
14 мая, пт
пт1400:00+10юв3492100 0.0 101643
03:00+10юв3392100 0.0 101636
06:00+11вюв3794100 0.0 1016160
09:00+16юв5883100 0.0 1015439
12:00+20юв7106999 0.0 1014959
15:00+21ююв81370100 0.8 10121479
18:00+20ю7137799 0.8 1011880
21:00+16ююв4138665 0.8 1010277
15 мая, сб
сб1500:00+15ююв3994100 3.8 1010209
03:00+15ссв119597 5.2 100812
06:00+15ююз3694100 0.0 1010149
09:00+18юз577897 0.0 1011477
12:00+20юз566756 0.0 10111135
15:00+21юз585517 0.0 10112061
18:00+19юз48728 0.4 1012747
21:00+15ююз348696 0.7 101362
16 мая, вс
вс1600:00+13ю34915 0.0 101354
03:00+12ююз359196 0.0 101478
06:00+13юз259197 0.0 1015125
09:00+17зюз34720 0.0 1015489
12:00+20юз34580 0.0 10151035
15:00+22юз23548 0.0 10141435
18:00+22с116127 0.0 101482
21:00+17св347877 0.0 101459
17 мая, пн
пн1700:00+16всв498279 0.0 1014200
03:00+14всв51291100 0.0 1014245
06:00+14всв4119135 0.0 1013250
09:00+20вюв697281 0.0 1012405
12:00+24вюв6956100 0.0 1011770
15:00+24вюв6956100 0.0 10111046
18:00+23вюв712655 0.0 1010607
21:00+18вюв61579100 0.0 1010371